| time (UTC) | temp F | wind direction | speed MPH | gust MPH | rain 1hr in | rain 24hr in | rain mn in | humidity % | barometer mb |
| 20260904144003 | 75 | 329 | 1.0 | 3.0 | 0.00 | 0.34 | 0.34 | 88 | 1010.7 |
| 20260904143502 | 75 | 19 | 1.0 | 3.0 | 0.00 | 0.34 | 0.34 | 88 | 1010.8 |
| 20260904143004 | 75 | 28 | 2.0 | 3.0 | 0.00 | 0.34 | 0.34 | 88 | 1010.9 |
| 20260904142503 | 75 | 23 | 1.0 | 3.0 | 0.00 | 0.34 | 0.34 | 88 | 1010.9 |
| 20260904141503 | 74 | 11 | 1.0 | 2.0 | 0.00 | 0.34 | 0.34 | 88 | 1010.8 |
| 20260904141004 | 74 | 5 | 2.0 | 3.0 | 0.00 | 0.34 | 0.34 | 88 | 1010.8 |
| 20260904140502 | 74 | 30 | 3.0 | 5.0 | 0.00 | 0.34 | 0.34 | 88 | 1010.7 |
| 20260904135503 | 74 | 8 | 0.0 | 2.0 | 0.00 | 0.34 | 0.34 | 89 | 1010.6 |
| 20260904135003 | 74 | 16 | 1.0 | 3.0 | 0.00 | 0.34 | 0.34 | 88 | 1010.6 |
| 20260904134503 | 74 | 15 | 1.0 | 3.0 | 0.00 | 0.34 | 0.34 | 89 | 1010.5 |
| 20260904134003 | 74 | 1 | 2.0 | 5.0 | 0.00 | 0.34 | 0.34 | 89 | 1010.6 |
| 20260904133002 | 73 | 356 | 1.0 | 3.0 | 0.00 | 0.34 | 0.34 | 89 | 1010.6 |
| 20260904132002 | 73 | 52 | 2.0 | 5.0 | 0.00 | 0.34 | 0.34 | 89 | 1010.5 |
| 20260904131003 | 73 | 11 | 1.0 | 3.0 | 0.00 | 0.34 | 0.34 | 89 | 1010.5 |
| 20260904130502 | 73 | 20 | 2.0 | 3.0 | 0.00 | 0.34 | 0.34 | 89 | 1010.5 |
| 20260904130004 | 73 | 15 | 1.0 | 3.0 | 0.00 | 0.34 | 0.34 | 89 | 1010.6 |
| 20260904125503 | 73 | 4 | 1.0 | 3.0 | 0.00 | 0.34 | 0.34 | 89 | 1010.6 |
| 20260904124503 | 73 | 356 | 1.0 | 3.0 | 0.00 | 0.34 | 0.34 | 89 | 1010.6 |
| 20260904123503 | 73 | 353 | 1.0 | 3.0 | 0.00 | 0.34 | 0.34 | 88 | 1010.5 |
| 20260904123003 | 73 | 8 | 1.0 | 3.0 | 0.00 | 0.34 | 0.34 | 88 | 1010.5 |
| 20260904122503 | 73 | 8 | 1.0 | 3.0 | 0.00 | 0.34 | 0.34 | 88 | 1010.5 |
| 20260904121503 | 73 | 20 | 1.0 | 3.0 | 0.00 | 0.34 | 0.34 | 88 | 1010.5 |
| 20260904120504 | 73 | 1 | 1.0 | 3.0 | 0.00 | 0.34 | 0.34 | 88 | 1010.6 |
| 20260904115504 | 73 | 356 | 1.0 | 2.0 | 0.00 | 0.34 | 0.34 | 88 | 1010.6 |
| 20260904115003 | 73 | 18 | 1.0 | 3.0 | 0.00 | 0.34 | 0.34 | 88 | 1010.6 |
| 20260904114502 | 73 | 15 | 1.0 | 2.0 | 0.00 | 0.34 | 0.34 | 88 | 1010.6 |
| 20260904114002 | 73 | 7 | 1.0 | 3.0 | 0.00 | 0.34 | 0.34 | 88 | 1010.6 |
| 20260904113503 | 73 | 17 | 1.0 | 3.0 | 0.00 | 0.34 | 0.34 | 88 | 1010.5 |
| 20260904113004 | 73 | 9 | 1.0 | 2.0 | 0.00 | 0.34 | 0.34 | 88 | 1010.5 |
| 20260904112504 | 73 | 15 | 1.0 | 3.0 | 0.00 | 0.34 | 0.34 | 88 | 1010.4 |
| 20260904112003 | 73 | 41 | 1.0 | 3.0 | 0.00 | 0.34 | 0.34 | 88 | 1010.4 |
| 20260904111502 | 73 | 16 | 1.0 | 3.0 | 0.00 | 0.34 | 0.34 | 88 | 1010.5 |
| 20260904111003 | 73 | 13 | 1.0 | 3.0 | 0.00 | 0.34 | 0.34 | 88 | 1010.4 |
| 20260904110502 | 73 | 21 | 1.0 | 2.0 | 0.00 | 0.34 | 0.34 | 88 | 1010.4 |
| 20260904110003 | 73 | 21 | 1.0 | 2.0 | 0.00 | 0.34 | 0.34 | 88 | 1010.3 |
| 20260904105504 | 73 | 21 | 1.0 | 2.0 | 0.00 | 0.34 | 0.34 | 88 | 1010.2 |
| 20260904105004 | 73 | 21 | 0.0 | 1.0 | 0.00 | 0.34 | 0.34 | 88 | 1010.2 |
| 20260904104503 | 73 | 21 | 1.0 | 2.0 | 0.00 | 0.34 | 0.34 | 88 | 1010.1 |
| 20260904103002 | 73 | 21 | 0.0 | 1.0 | 0.00 | 0.34 | 0.34 | 88 | 1010.0 |
| 20260904102502 | 73 | 21 | 0.0 | 1.0 | 0.00 | 0.34 | 0.34 | 88 | 1010.0 |
| 20260904102002 | 73 | 21 | 1.0 | 1.0 | 0.00 | 0.34 | 0.34 | 88 | 1010.0 |
| 20260904101003 | 73 | 21 | 0.0 | 1.0 | 0.00 | 0.34 | 0.34 | 88 | 1009.7 |
| 20260904100503 | 73 | 21 | 0.0 | 0.0 | 0.00 | 0.34 | 0.34 | 88 | 1009.7 |
| 20260904100002 | 74 | 21 | 0.0 | 0.0 | 0.00 | 0.34 | 0.34 | 88 | 1009.6 |
| 20260904095502 | 74 | 21 | 0.0 | 0.0 | 0.00 | 0.34 | 0.34 | 88 | 1009.5 |
| 20260904094503 | 74 | 21 | 0.0 | 1.0 | 0.00 | 0.34 | 0.34 | 88 | 1009.5 |
| 20260904094002 | 74 | 21 | 0.0 | 0.0 | 0.00 | 0.34 | 0.34 | 88 | 1009.4 |
| 20260904093502 | 74 | 21 | 0.0 | 0.0 | 0.00 | 0.34 | 0.34 | 88 | 1009.4 |
| 20260904093002 | 74 | 21 | 0.0 | 1.0 | 0.00 | 0.34 | 0.34 | 88 | 1009.4 |
| 20260904092503 | 74 | 21 | 0.0 | 0.0 | 0.00 | 0.34 | 0.34 | 88 | 1009.4 |
| 20260904092003 | 74 | 21 | 0.0 | 1.0 | 0.00 | 0.34 | 0.34 | 88 | 1009.6 |
| 20260904091002 | 74 | 21 | 0.0 | 1.0 | 0.00 | 0.34 | 0.34 | 88 | 1009.4 |
| 20260904090502 | 74 | 21 | 1.0 | 2.0 | 0.00 | 0.34 | 0.34 | 88 | 1009.6 |
| 20260904090003 | 74 | 21 | 0.0 | 0.0 | 0.00 | 0.34 | 0.34 | 88 | 1009.5 |
| 20260904085503 | 74 | 21 | 0.0 | 0.0 | 0.00 | 0.34 | 0.34 | 88 | 1009.4 |
| 20260904084504 | 74 | 21 | 0.0 | 1.0 | 0.00 | 0.34 | 0.34 | 88 | 1009.5 |
| 20260904084004 | 74 | 21 | 0.0 | 2.0 | 0.00 | 0.34 | 0.34 | 88 | 1009.5 |
| 20260904083504 | 74 | 21 | 0.0 | 0.0 | 0.00 | 0.34 | 0.34 | 88 | 1009.6 |
| 20260904083003 | 74 | 21 | 1.0 | 1.0 | 0.00 | 0.34 | 0.34 | 88 | 1009.8 |
| 20260904082502 | 74 | 21 | 1.0 | 3.0 | 0.00 | 0.34 | 0.34 | 88 | 1009.7 |
| 20260904082003 | 74 | 4 | 0.0 | 0.0 | 0.00 | 0.34 | 0.34 | 88 | 1009.8 |
| 20260904081503 | 74 | 292 | 0.0 | 0.0 | 0.00 | 0.34 | 0.34 | 88 | 1009.6 |
| 20260904081003 | 74 | 292 | 0.0 | 0.0 | 0.00 | 0.34 | 0.34 | 88 | 1009.5 |
| 20260904080503 | 74 | 292 | 0.0 | 0.0 | 0.00 | 0.34 | 0.34 | 88 | 1009.5 |
| 20260904080003 | 74 | 292 | 0.0 | 0.0 | 0.00 | 0.34 | 0.34 | 88 | 1009.5 |
| 20260904075504 | 74 | 292 | 0.0 | 0.0 | 0.00 | 0.34 | 0.34 | 88 | 1009.4 |
| 20260904074503 | 74 | 292 | 0.0 | 0.0 | 0.00 | 0.35 | 0.34 | 88 | 1009.6 |
| 20260904074002 | 74 | 292 | 0.0 | 0.0 | 0.00 | 0.35 | 0.34 | 88 | 1009.6 |
| 20260904073502 | 74 | 292 | 0.0 | 0.0 | 0.00 | 0.35 | 0.34 | 88 | 1009.6 |
| 20260904073002 | 74 | 292 | 0.0 | 1.0 | 0.02 | 0.35 | 0.34 | 87 | 1009.5 |
| 20260904072502 | 74 | 292 | 0.0 | 2.0 | 0.20 | 0.35 | 0.34 | 87 | 1009.4 |
| 20260904072004 | 74 | 260 | 0.0 | 2.0 | 0.21 | 0.36 | 0.34 | 87 | 1009.5 |
| 20260904071503 | 75 | 257 | 0.0 | 0.0 | 0.21 | 0.36 | 0.34 | 87 | 1009.4 |
| 20260904071002 | 75 | 257 | 0.0 | 0.0 | 0.21 | 0.36 | 0.34 | 87 | 1009.6 |
| 20260904070502 | 75 | 330 | 0.0 | 0.0 | 0.22 | 0.36 | 0.34 | 87 | 1009.8 |
| 20260904065503 | 75 | 15 | 0.0 | 3.0 | 0.34 | 0.36 | 0.34 | 87 | 1009.8 |
| 20260904065003 | 75 | 30 | 1.0 | 3.0 | 0.34 | 0.36 | 0.34 | 87 | 1010.0 |
| 20260904064003 | 75 | 346 | 1.0 | 2.0 | 0.34 | 0.36 | 0.34 | 86 | 1009.8 |
| 20260904063502 | 75 | 257 | 2.0 | 3.0 | 0.34 | 0.37 | 0.34 | 86 | 1009.7 |
| 20260904063003 | 75 | 47 | 2.0 | 3.0 | 0.32 | 0.35 | 0.32 | 85 | 1009.8 |
| 20260904062503 | 76 | 297 | 0.0 | 0.0 | 0.14 | 0.17 | 0.14 | 85 | 1010.1 |
| 20260904062004 | 76 | 34 | 0.0 | 1.0 | 0.13 | 0.16 | 0.13 | 85 | 1009.9 |
| 20260904061503 | 76 | 34 | 1.0 | 2.0 | 0.13 | 0.16 | 0.13 | 84 | 1010.0 |
| 20260904061002 | 76 | 138 | 1.0 | 3.0 | 0.13 | 0.16 | 0.13 | 84 | 1010.1 |
| 20260904060503 | 76 | 3 | 2.0 | 8.0 | 0.12 | 0.15 | 0.12 | 84 | 1010.4 |
| 20260904060003 | 76 | 54 | 2.0 | 5.0 | 0.11 | 0.14 | 0.11 | 84 | 1010.4 |
| 20260904055503 | 76 | 348 | 1.0 | 3.0 | 0.00 | 0.03 | 0.00 | 84 | 1010.4 |
| 20260904055003 | 76 | 212 | 0.0 | 0.0 | 0.00 | 0.04 | 0.00 | 84 | 1010.1 |
| 20260904054003 | 76 | 212 | 0.0 | 0.0 | 0.00 | 0.04 | 0.00 | 84 | 1010.3 |
| 20260904053003 | 76 | 212 | 0.0 | 0.0 | 0.00 | 0.04 | 0.00 | 84 | 1010.3 |
| 20260904052503 | 76 | 212 | 0.0 | 0.0 | 0.00 | 0.04 | 0.00 | 84 | 1010.6 |
| 20260904052003 | 76 | 212 | 0.0 | 0.0 | 0.00 | 0.05 | 0.00 | 84 | 1010.5 |
| 20260904051502 | 76 | 212 | 1.0 | 3.0 | 0.00 | 0.05 | 0.00 | 84 | 1010.7 |
| 20260904051002 | 76 | 226 | 1.0 | 2.0 | 0.00 | 0.05 | 0.00 | 84 | 1010.6 |
| 20260904050502 | 76 | 230 | 2.0 | 3.0 | 0.00 | 0.05 | 0.00 | 83 | 1010.7 |
| 20260904050002 | 76 | 223 | 1.0 | 2.0 | 0.00 | 0.05 | 0.00 | 83 | 1010.6 |
| 20260904044503 | 76 | 198 | 1.0 | 3.0 | 0.00 | 0.05 | 0.00 | 84 | 1010.8 |
| 20260904044003 | 76 | 198 | 1.0 | 3.0 | 0.00 | 0.05 | 0.00 | 84 | 1011.0 |
| 20260904043504 | 76 | 202 | 1.0 | 3.0 | 0.00 | 0.05 | 0.00 | 84 | 1011.0 |
| 20260904042503 | 76 | 216 | 2.0 | 3.0 | 0.00 | 0.05 | 0.00 | 84 | 1011.2 |
| 20260904042004 | 76 | 226 | 2.0 | 3.0 | 0.00 | 0.05 | 0.00 | 84 | 1011.2 |
| 20260904041503 | 76 | 209 | 2.0 | 3.0 | 0.00 | 0.05 | 0.00 | 83 | 1011.2 |
| 20260904041003 | 76 | 221 | 1.0 | 3.0 | 0.00 | 0.05 | 0.00 | 83 | 1011.1 |
| 20260904040504 | 76 | 209 | 1.0 | 3.0 | 0.00 | 0.05 | 0.00 | 83 | 1011.0 |
| 20260904040003 | 76 | 210 | 1.0 | 3.0 | 0.00 | 0.05 | 0.00 | 83 | 1011.1 |
| 20260904035503 | 76 | 240 | 1.0 | 2.0 | 0.00 | 0.05 | 0.05 | 83 | 1011.3 |
| 20260904033503 | 76 | 184 | 1.0 | 2.0 | 0.00 | 0.05 | 0.05 | 83 | 1011.2 |
| 20260904033003 | 76 | 219 | 1.0 | 3.0 | 0.00 | 0.05 | 0.05 | 83 | 1011.2 |
| 20260904032004 | 76 | 186 | 1.0 | 2.0 | 0.00 | 0.05 | 0.05 | 83 | 1011.0 |
| 20260904031003 | 76 | 202 | 1.0 | 3.0 | 0.00 | 0.05 | 0.05 | 83 | 1011.3 |
| 20260904030504 | 76 | 231 | 1.0 | 2.0 | 0.00 | 0.05 | 0.05 | 83 | 1011.3 |
| 20260904030002 | 76 | 204 | 1.0 | 2.0 | 0.00 | 0.05 | 0.05 | 83 | 1011.3 |
| 20260904025503 | 76 | 167 | 1.0 | 2.0 | 0.00 | 0.05 | 0.05 | 83 | 1011.5 |
| 20260904025004 | 76 | 166 | 1.0 | 3.0 | 0.00 | 0.05 | 0.05 | 83 | 1011.5 |
| 20260904024503 | 76 | 219 | 1.0 | 3.0 | 0.00 | 0.05 | 0.05 | 83 | 1011.7 |
| 20260904024003 | 76 | 212 | 1.0 | 2.0 | 0.00 | 0.05 | 0.05 | 83 | 1011.8 |
| 20260904023503 | 76 | 201 | 1.0 | 3.0 | 0.00 | 0.05 | 0.05 | 83 | 1011.8 |
| 20260904023003 | 76 | 219 | 1.0 | 3.0 | 0.00 | 0.05 | 0.05 | 83 | 1011.9 |
| 20260904022503 | 76 | 212 | 1.0 | 3.0 | 0.00 | 0.05 | 0.05 | 83 | 1012.0 |
| 20260904021503 | 76 | 182 | 0.0 | 0.0 | 0.00 | 0.05 | 0.05 | 83 | 1012.0 |
| 20260904020504 | 76 | 182 | 0.0 | 0.0 | 0.00 | 0.05 | 0.05 | 82 | 1011.9 |
| 20260904015003 | 76 | 182 | 0.0 | 0.0 | 0.00 | 0.05 | 0.05 | 82 | 1011.9 |
| 20260904014503 | 76 | 182 | 0.0 | 0.0 | 0.00 | 0.05 | 0.05 | 82 | 1012.1 |
| 20260904014003 | 76 | 182 | 0.0 | 2.0 | 0.00 | 0.05 | 0.05 | 82 | 1012.1 |
| 20260904013502 | 76 | 182 | 1.0 | 2.0 | 0.00 | 0.05 | 0.05 | 82 | 1012.1 |
| 20260904013002 | 76 | 182 | 1.0 | 2.0 | 0.00 | 0.05 | 0.05 | 82 | 1012.3 |
| 20260904012503 | 76 | 182 | 0.0 | 0.0 | 0.00 | 0.05 | 0.05 | 82 | 1012.3 |
| 20260904012003 | 76 | 182 | 0.0 | 0.0 | 0.00 | 0.05 | 0.05 | 81 | 1012.2 |
| 20260904011503 | 76 | 182 | 0.0 | 0.0 | 0.00 | 0.05 | 0.05 | 81 | 1012.1 |
| 20260904011004 | 76 | 182 | 0.0 | 2.0 | 0.00 | 0.05 | 0.05 | 81 | 1012.1 |
| 20260904010004 | 76 | 182 | 0.0 | 0.0 | 0.00 | 0.05 | 0.05 | 81 | 1012.3 |
| 20260904005503 | 76 | 182 | 0.0 | 0.0 | 0.00 | 0.05 | 0.05 | 81 | 1012.4 |
| 20260904004503 | 76 | 182 | 1.0 | 2.0 | 0.00 | 0.05 | 0.05 | 81 | 1012.2 |
| 20260904004003 | 77 | 182 | 1.0 | 2.0 | 0.00 | 0.05 | 0.05 | 81 | 1012.0 |
| 20260904003004 | 77 | 182 | 1.0 | 2.0 | 0.00 | 0.05 | 0.05 | 80 | 1011.9 |
| 20260904002504 | 77 | 209 | 1.0 | 2.0 | 0.00 | 0.05 | 0.05 | 80 | 1012.0 |
| 20260904002003 | 77 | 190 | 1.0 | 3.0 | 0.00 | 0.05 | 0.05 | 80 | 1012.0 |
| 20260904001504 | 77 | 215 | 1.0 | 3.0 | 0.00 | 0.05 | 0.05 | 80 | 1012.0 |
| 20260904001004 | 77 | 207 | 0.0 | 0.0 | 0.00 | 0.05 | 0.05 | 80 | 1011.9 |
| 20260904000504 | 77 | 207 | 0.0 | 2.0 | 0.00 | 0.05 | 0.05 | 80 | 1011.9 |
| 20260903235003 | 78 | 189 | 1.0 | 2.0 | 0.00 | 0.05 | 0.05 | 79 | 1011.6 |
| 20260903234504 | 78 | 199 | 0.0 | 2.0 | 0.00 | 0.05 | 0.05 | 79 | 1011.4 |
| 20260903234004 | 78 | 172 | 0.0 | 3.0 | 0.00 | 0.05 | 0.05 | 79 | 1011.3 |
| 20260903233504 | 79 | 163 | 1.0 | 2.0 | 0.00 | 0.05 | 0.05 | 79 | 1011.3 |
| 20260903233003 | 79 | 188 | 0.0 | 0.0 | 0.00 | 0.05 | 0.05 | 79 | 1011.4 |
| 20260903232002 | 79 | 210 | 0.0 | 2.0 | 0.00 | 0.05 | 0.05 | 78 | 1011.4 |
| 20260903231504 | 80 | 210 | 0.0 | 2.0 | 0.00 | 0.05 | 0.05 | 78 | 1011.4 |
| 20260903230503 | 80 | 226 | 0.0 | 0.0 | 0.00 | 0.05 | 0.05 | 78 | 1011.7 |
| 20260903230003 | 80 | 226 | 0.0 | 0.0 | 0.00 | 0.05 | 0.05 | 78 | 1011.7 |
| 20260903225503 | 81 | 226 | 0.0 | 0.0 | 0.00 | 0.05 | 0.05 | 78 | 1011.7 |
| 20260903225003 | 81 | 226 | 0.0 | 0.0 | 0.00 | 0.05 | 0.05 | 77 | 1011.8 |
| 20260903224503 | 81 | 226 | 0.0 | 1.0 | 0.00 | 0.05 | 0.05 | 77 | 1011.9 |
| 20260903223503 | 81 | 259 | 0.0 | 1.0 | 0.00 | 0.05 | 0.05 | 77 | 1011.9 |
| 20260903223003 | 81 | 259 | 0.0 | 1.0 | 0.00 | 0.05 | 0.05 | 77 | 1011.9 |
| 20260903222504 | 81 | 206 | 0.0 | 1.0 | 0.00 | 0.05 | 0.05 | 78 | 1011.9 |
| 20260903222004 | 81 | 206 | 0.0 | 3.0 | 0.00 | 0.05 | 0.05 | 77 | 1011.8 |
| 20260903221003 | 81 | 129 | 0.0 | 0.0 | 0.00 | 0.05 | 0.05 | 76 | 1011.7 |
| 20260903220002 | 82 | 129 | 0.0 | 0.0 | 0.00 | 0.05 | 0.05 | 76 | 1011.8 |
| 20260903215503 | 82 | 129 | 0.0 | 0.0 | 0.00 | 0.05 | 0.05 | 76 | 1011.8 |
| 20260903215004 | 82 | 129 | 0.0 | 0.0 | 0.00 | 0.05 | 0.05 | 76 | 1011.8 |
| 20260903214003 | 82 | 129 | 0.0 | 0.0 | 0.00 | 0.05 | 0.05 | 76 | 1011.8 |
| 20260903213003 | 82 | 129 | 0.0 | 0.0 | 0.00 | 0.05 | 0.05 | 76 | 1011.8 |
| 20260903212504 | 82 | 130 | 0.0 | 0.0 | 0.00 | 0.05 | 0.05 | 76 | 1011.8 |
| 20260903212003 | 82 | 130 | 0.0 | 0.0 | 0.00 | 0.05 | 0.05 | 76 | 1011.8 |
| 20260903211504 | 82 | 326 | 0.0 | 0.0 | 0.00 | 0.05 | 0.05 | 76 | 1011.8 |
| 20260903211003 | 82 | 68 | 0.0 | 0.0 | 0.00 | 0.05 | 0.05 | 76 | 1011.7 |
| 20260903210503 | 82 | 68 | 0.0 | 0.0 | 0.00 | 0.05 | 0.05 | 75 | 1011.7 |
| 20260903210003 | 82 | 67 | 0.0 | 0.0 | 0.00 | 0.05 | 0.05 | 75 | 1011.7 |
| 20260903205504 | 82 | 68 | 0.0 | 0.0 | 0.00 | 0.05 | 0.05 | 75 | 1011.7 |
| 20260903205003 | 83 | 33 | 0.0 | 0.0 | 0.00 | 0.05 | 0.05 | 75 | 1011.8 |
| 20260903204004 | 83 | 86 | 0.0 | 0.0 | 0.00 | 0.05 | 0.05 | 75 | 1011.8 |
| 20260903203503 | 83 | 186 | 0.0 | 0.0 | 0.00 | 0.06 | 0.05 | 76 | 1011.8 |
| 20260903201004 | 82 | 186 | 0.0 | 1.0 | 0.00 | 0.13 | 0.05 | 76 | 1011.8 |
| 20260903200503 | 82 | 35 | 0.0 | 2.0 | 0.00 | 0.18 | 0.05 | 76 | 1011.9 |
| 20260903195503 | 82 | 28 | 0.0 | 0.0 | 0.00 | 0.26 | 0.05 | 75 | 1012.0 |
| 20260903194003 | 82 | 2 | 0.0 | 2.0 | 0.00 | 0.30 | 0.05 | 75 | 1012.2 |
| 20260903193003 | 83 | 249 | 0.0 | 0.0 | 0.00 | 0.32 | 0.05 | 74 | 1012.1 |
| 20260903192503 | 83 | 249 | 0.0 | 1.0 | 0.00 | 0.32 | 0.05 | 75 | 1012.2 |
| 20260903192003 | 83 | 239 | 0.0 | 1.0 | 0.00 | 0.32 | 0.05 | 75 | 1012.2 |
| 20260903191503 | 83 | 27 | 0.0 | 0.0 | 0.00 | 0.32 | 0.05 | 74 | 1012.3 |
| 20260903191003 | 83 | 30 | 0.0 | 2.0 | 0.00 | 0.32 | 0.05 | 73 | 1012.3 |
| 20260903190503 | 83 | 228 | 0.0 | 3.0 | 0.00 | 0.32 | 0.05 | 73 | 1012.3 |
| 20260903190003 | 84 | 356 | 1.0 | 3.0 | 0.00 | 0.32 | 0.05 | 73 | 1012.5 |
| 20260903185503 | 84 | 287 | 0.0 | 3.0 | 0.00 | 0.32 | 0.05 | 73 | 1012.5 |
| 20260903185003 | 84 | 16 | 0.0 | 3.0 | 0.00 | 0.32 | 0.05 | 74 | 1012.6 |
| 20260903184503 | 84 | 274 | 2.0 | 6.0 | 0.00 | 0.32 | 0.05 | 74 | 1012.5 |
| 20260903184005 | 84 | 239 | 2.0 | 5.0 | 0.00 | 0.32 | 0.05 | 74 | 1012.6 |
| 20260903183503 | 83 | 243 | 1.0 | 5.0 | 0.00 | 0.32 | 0.05 | 74 | 1012.5 |
| 20260903183003 | 83 | 264 | 1.0 | 3.0 | 0.00 | 0.32 | 0.05 | 74 | 1012.6 |
| 20260903182503 | 83 | 9 | 1.0 | 3.0 | 0.00 | 0.32 | 0.05 | 75 | 1012.5 |
| 20260903181503 | 83 | 262 | 2.0 | 5.0 | 0.00 | 0.32 | 0.05 | 75 | 1012.6 |
| 20260903181003 | 83 | 233 | 3.0 | 7.0 | 0.00 | 0.32 | 0.05 | 76 | 1012.6 |
| 20260903180503 | 82 | 206 | 1.0 | 3.0 | 0.00 | 0.32 | 0.05 | 76 | 1012.8 |
| 20260903180003 | 82 | 222 | 2.0 | 5.0 | 0.00 | 0.32 | 0.05 | 77 | 1012.8 |
| 20260903175504 | 82 | 222 | 2.0 | 3.0 | 0.00 | 0.32 | 0.05 | 77 | 1012.9 |
| 20260903175004 | 82 | 327 | 2.0 | 5.0 | 0.00 | 0.32 | 0.05 | 77 | 1012.9 |
| 20260903174503 | 82 | 255 | 2.0 | 3.0 | 0.00 | 0.32 | 0.05 | 76 | 1013.0 |
| 20260903174004 | 81 | 356 | 1.0 | 3.0 | 0.00 | 0.32 | 0.05 | 77 | 1013.0 |
| 20260903173503 | 81 | 294 | 1.0 | 3.0 | 0.00 | 0.32 | 0.05 | 77 | 1013.0 |
| 20260903173004 | 81 | 323 | 2.0 | 6.0 | 0.00 | 0.32 | 0.05 | 78 | 1013.1 |
| 20260903172504 | 81 | 274 | 2.0 | 5.0 | 0.00 | 0.32 | 0.05 | 79 | 1013.1 |
| 20260903172003 | 80 | 263 | 2.0 | 5.0 | 0.00 | 0.32 | 0.05 | 79 | 1013.3 |
| 20260903171502 | 80 | 242 | 2.0 | 6.0 | 0.00 | 0.32 | 0.05 | 79 | 1013.3 |
| 20260903171003 | 80 | 290 | 1.0 | 5.0 | 0.00 | 0.32 | 0.05 | 79 | 1013.2 |
| 20260903170503 | 80 | 250 | 3.0 | 5.0 | 0.00 | 0.32 | 0.05 | 81 | 1013.2 |
| 20260903170004 | 80 | 320 | 1.0 | 3.0 | 0.00 | 0.32 | 0.05 | 81 | 1013.2 |
| 20260903165503 | 80 | 241 | 1.0 | 3.0 | 0.00 | 0.32 | 0.05 | 80 | 1013.4 |
| 20260903165003 | 80 | 199 | 2.0 | 3.0 | 0.00 | 0.32 | 0.05 | 80 | 1013.4 |
| 20260903164004 | 80 | 251 | 2.0 | 6.0 | 0.00 | 0.32 | 0.05 | 82 | 1013.3 |
| 20260903163503 | 79 | 309 | 2.0 | 6.0 | 0.00 | 0.32 | 0.05 | 81 | 1013.3 |
| 20260903163004 | 79 | 323 | 2.0 | 5.0 | 0.00 | 0.32 | 0.05 | 82 | 1013.4 |
| 20260903162503 | 79 | 287 | 2.0 | 3.0 | 0.00 | 0.32 | 0.05 | 82 | 1013.4 |
| 20260903162003 | 78 | 258 | 1.0 | 3.0 | 0.00 | 0.32 | 0.05 | 82 | 1013.5 |
| 20260903161503 | 78 | 278 | 2.0 | 7.0 | 0.00 | 0.32 | 0.05 | 83 | 1013.6 |
| 20260903160504 | 78 | 226 | 2.0 | 6.0 | 0.00 | 0.32 | 0.05 | 84 | 1013.7 |
| 20260903160003 | 77 | 271 | 2.0 | 5.0 | 0.00 | 0.32 | 0.05 | 84 | 1013.7 |
| 20260903155503 | 77 | 272 | 2.0 | 6.0 | 0.00 | 0.32 | 0.05 | 85 | 1013.8 |
| 20260903154510 | 77 | 242 | 2.0 | 5.0 | 0.00 | 0.32 | 0.05 | 86 | 1013.8 |
| 20260903153503 | 77 | 202 | 2.0 | 3.0 | 0.00 | 0.32 | 0.05 | 87 | 1013.8 |
| 20260903153004 | 76 | 280 | 0.0 | 3.0 | 0.00 | 0.32 | 0.05 | 87 | 1013.8 |
| 20260903152504 | 76 | 208 | 2.0 | 3.0 | 0.00 | 0.32 | 0.05 | 87 | 1013.8 |
| 20260903152004 | 76 | 203 | 2.0 | 7.0 | 0.00 | 0.32 | 0.05 | 87 | 1013.9 |
| 20260903151503 | 75 | 196 | 2.0 | 3.0 | 0.00 | 0.32 | 0.05 | 88 | 1013.9 |
| 20260903150503 | 75 | 259 | 2.0 | 5.0 | 0.00 | 0.32 | 0.05 | 88 | 1014.1 |
| 20260903145004 | 75 | 217 | 3.0 | 5.0 | 0.00 | 0.32 | 0.05 | 88 | 1014.2 |
| 20260903144503 | 75 | 206 | 2.0 | 5.0 | 0.00 | 0.32 | 0.05 | 88 | 1014.2 |